Weather History for KMDZ - May, 2013

Change the Weather History Date:

Saturday, May 18, 2013

  Actual Average Record
Temperature  
Mean Temperature 62 °F -  
Max Temperature 73 °F 68 °F 85 °F (1987)
Min Temperature 50 °F 45 °F 28 °F (2002)
Degree Days  
Heating Degree Days 4    
Growing Degree Days 12 (Base 50)    
Moisture  
Dew Point 56 °F    
Average Humidity 82    
Maximum Humidity 94    
Minimum Humidity 69    
Precipitation  
Precipitation 0.00 in - - ()
Sea Level Pressure  
Sea Level Pressure 30.00 in    
Wind  
Wind Speed 9 mph (SE)    
Max Wind Speed 16 mph    
Max Gust Speed 20 mph    
Visibility 9 miles    
Events Rain    
Averages and records for this station are not official NWS values.
T = Trace of Precipitation, MM = Missing Value Source: NWS Daily Summary

Daily Weather History Graph

Daily Weather History Graph

Search for Another Location

Airport or City:

Trip Planner

Search our weather history database for the weather conditions in past years. The results will help you decide how hot, cold, wet, or windy it might be!

Date:

Astronomy

May. 18, 2013 Rise Set
Actual Time 5:28 AM CDT 8:27 PM CDT
Civil Twilight 4:53 AM CDT 9:02 PM CDT
Nautical Twilight 4:09 AM CDT 9:47 PM CDT
Astronomical Twilight 3:16 AM CDT 10:40 PM CDT
Moon 1:12 PM CDT (5/18) 1:40 AM CDT (5/18)
Length of Visible Light 16h 08m
Length of Day
14h 59m
First Quarter, 55% of the Moon is Illuminated
May 18
First Quarter
May 24
Full
May 31
Last Quarter
Jun 8
New
Jun 16
First Quarter

Hourly Weather History & Observations

Time (CDT) Temp. Dew Point Humidity Pressure Visibility Wind Dir Wind Speed Gust Speed Precip Events Conditions
12:15 AM 51.8 °F 50.0 °F 94% 30.07 in 10.0 mi East 11.5 mph - N/A   Overcast
12:35 AM 53.6 °F 50.0 °F 88% 30.06 in 10.0 mi ESE 11.5 mph - N/A   Overcast
12:55 AM 53.6 °F 48.2 °F 82% 30.07 in 10.0 mi ESE 10.4 mph - N/A   Overcast
1:15 AM 53.6 °F 48.2 °F 82% 30.06 in 10.0 mi ESE 9.2 mph - N/A   Overcast
1:35 AM 51.8 °F 48.2 °F 88% 30.06 in 10.0 mi East 10.4 mph - N/A   Overcast
1:55 AM 51.8 °F 48.2 °F 88% 30.07 in 10.0 mi ESE 8.1 mph - N/A   Overcast
2:15 AM 51.8 °F 48.2 °F 88% 30.07 in 10.0 mi East 4.6 mph - N/A   Overcast
2:35 AM 51.8 °F 48.2 °F 88% 30.07 in 10.0 mi East 5.8 mph - N/A   Drizzle
2:55 AM 51.8 °F 48.2 °F 88% 30.06 in 5.0 mi East 6.9 mph - N/A Rain Heavy Rain
3:15 AM 51.8 °F 48.2 °F 88% 30.06 in 7.0 mi East 9.2 mph - N/A Rain Rain
3:35 AM 51.8 °F 48.2 °F 88% 30.05 in 7.0 mi East 8.1 mph - N/A Rain Rain
3:55 AM 50.0 °F 48.2 °F 94% 30.05 in 7.0 mi East 8.1 mph - N/A Rain Light Rain
4:15 AM 51.8 °F 48.2 °F 88% 30.05 in 10.0 mi East 8.1 mph - N/A Rain Rain
4:35 AM 50.0 °F 48.2 °F 94% 30.04 in 5.0 mi East 10.4 mph - N/A Rain Heavy Rain
4:55 AM 50.0 °F 48.2 °F 94% 30.03 in 10.0 mi East 11.5 mph - N/A Rain Light Rain
5:15 AM 51.8 °F 48.2 °F 88% 30.03 in 10.0 mi East 10.4 mph - N/A   Overcast
5:35 AM 51.8 °F 48.2 °F 88% 30.03 in 10.0 mi ESE 12.7 mph - N/A   Overcast
5:55 AM 51.8 °F 48.2 °F 88% 30.03 in 10.0 mi ESE 10.4 mph - N/A   Scattered Clouds
6:15 AM 51.8 °F 48.2 °F 88% 30.04 in 10.0 mi East 8.1 mph - N/A   Scattered Clouds
6:35 AM 51.8 °F 48.2 °F 88% 30.04 in 10.0 mi ESE 10.4 mph - N/A   Mostly Cloudy
6:55 AM 51.8 °F 48.2 °F 88% 30.04 in 10.0 mi ESE 6.9 mph - N/A   Mostly Cloudy
7:15 AM 51.8 °F 48.2 °F 88% 30.04 in 10.0 mi ESE 8.1 mph - N/A   Scattered Clouds
7:35 AM 51.8 °F 48.2 °F 88% 30.04 in 10.0 mi ESE 8.1 mph - N/A   Clear
7:55 AM 51.8 °F 48.2 °F 88% 30.04 in 10.0 mi ESE 8.1 mph - N/A   Scattered Clouds
8:15 AM 53.6 °F 48.2 °F 82% 30.04 in 10.0 mi ESE 9.2 mph - N/A   Clear
8:35 AM 53.6 °F 50.0 °F 88% 30.04 in 10.0 mi ESE 6.9 mph - N/A   Scattered Clouds
8:55 AM 53.6 °F 50.0 °F 88% 30.05 in 10.0 mi ESE 8.1 mph - N/A   Scattered Clouds
9:15 AM 55.4 °F 51.8 °F 88% 30.04 in 10.0 mi ESE 9.2 mph - N/A   Scattered Clouds
9:35 AM 55.4 °F 51.8 °F 88% 30.04 in 10.0 mi ESE 8.1 mph - N/A   Scattered Clouds
9:55 AM 57.2 °F 51.8 °F 82% 30.04 in 10.0 mi ESE 8.1 mph - N/A   Mostly Cloudy
10:15 AM 57.2 °F 51.8 °F 82% 30.05 in 10.0 mi SE 6.9 mph - N/A   Overcast
10:35 AM 59.0 °F 53.6 °F 82% 30.04 in 10.0 mi ESE 8.1 mph - N/A   Overcast
10:55 AM 60.8 °F 53.6 °F 77% 30.04 in 10.0 mi SE 6.9 mph - N/A   Mostly Cloudy
11:15 AM 60.8 °F 55.4 °F 82% 30.04 in 10.0 mi SE 9.2 mph - N/A   Mostly Cloudy
11:35 AM 60.8 °F 55.4 °F 82% 30.04 in 10.0 mi SSE 9.2 mph - N/A   Scattered Clouds
11:55 AM 62.6 °F 55.4 °F 77% 30.03 in 10.0 mi SSE 9.2 mph - N/A   Scattered Clouds
12:15 PM 62.6 °F 55.4 °F 77% 30.03 in 10.0 mi SSE 8.1 mph - N/A   Scattered Clouds
12:35 PM 64.4 °F 57.2 °F 77% 30.02 in 10.0 mi South 6.9 mph - N/A   Mostly Cloudy
12:55 PM 64.4 °F 57.2 °F 77% 30.02 in 10.0 mi SSE 9.2 mph - N/A   Mostly Cloudy
1:15 PM 66.2 °F 59.0 °F 78% 30.01 in 10.0 mi SSE 9.2 mph - N/A   Mostly Cloudy
1:35 PM 66.2 °F 59.0 °F 78% 30.00 in 10.0 mi SSE 9.2 mph - N/A   Mostly Cloudy
2:15 PM 66.2 °F 60.8 °F 83% 29.98 in 10.0 mi SE 11.5 mph - N/A   Scattered Clouds
2:35 PM 68.0 °F 60.8 °F 78% 29.97 in 7.0 mi SE 10.4 mph - N/A   Scattered Clouds
2:55 PM 68.0 °F 60.8 °F 78% 29.92 in 7.0 mi ESE 16.1 mph 19.6 mph N/A   Scattered Clouds
3:15 PM 69.8 °F 62.6 °F 78% 29.94 in 10.0 mi SSE 10.4 mph 18.4 mph N/A   Scattered Clouds
3:35 PM 69.8 °F 62.6 °F 78% 29.94 in 7.0 mi SSE 11.5 mph 19.6 mph N/A   Clear
3:55 PM 69.8 °F 62.6 °F 78% 29.94 in 7.0 mi SSE 11.5 mph 17.3 mph N/A   Clear
4:15 PM 71.6 °F 62.6 °F 73% 29.93 in 7.0 mi South 13.8 mph 17.3 mph N/A   Clear
4:35 PM 71.6 °F 62.6 °F 73% 29.94 in 7.0 mi South 12.7 mph 17.3 mph N/A   Clear
4:55 PM 71.6 °F 64.4 °F 78% 29.94 in 7.0 mi SSE 11.5 mph 17.3 mph N/A   Clear
5:15 PM 71.6 °F 64.4 °F 78% 29.94 in 7.0 mi South 8.1 mph - N/A   Clear
5:35 PM 71.6 °F 62.6 °F 73% 29.94 in 7.0 mi South 9.2 mph - N/A   Clear
5:55 PM 71.6 °F 62.6 °F 73% 29.93 in 7.0 mi SSE 10.4 mph - N/A   Clear
6:15 PM 73.4 °F 62.6 °F 69% 29.94 in 10.0 mi SSE 8.1 mph - N/A   Clear
6:35 PM 71.6 °F 62.6 °F 73% 29.93 in 10.0 mi SSE 9.2 mph - N/A   Clear
6:55 PM 71.6 °F 62.6 °F 73% 29.93 in 10.0 mi SSE 5.8 mph - N/A   Clear
7:15 PM 71.6 °F 62.6 °F 73% 29.93 in 10.0 mi SSE 5.8 mph - N/A   Clear
7:35 PM 71.6 °F 62.6 °F 73% 29.94 in 10.0 mi SSE 6.9 mph - N/A   Clear
7:55 PM 71.6 °F 62.6 °F 73% 29.94 in 10.0 mi SE 5.8 mph - N/A   Clear
8:15 PM 71.6 °F 62.6 °F 73% 29.94 in 10.0 mi SE 6.9 mph - N/A   Clear
8:35 PM 69.8 °F 62.6 °F 78% 29.94 in 10.0 mi SE 4.6 mph - N/A   Clear
8:55 PM 68.0 °F 62.6 °F 83% 29.94 in 10.0 mi SE 5.8 mph - N/A   Clear
9:15 PM 69.8 °F 62.6 °F 78% 29.94 in 10.0 mi SE 5.8 mph - N/A   Clear
9:35 PM 68.0 °F 62.6 °F 83% 29.93 in 10.0 mi SE 8.1 mph - N/A   Clear
9:55 PM 68.0 °F 62.6 °F 83% 29.93 in 10.0 mi SE 6.9 mph - N/A   Clear
10:15 PM 68.0 °F 62.6 °F 83% 29.92 in 10.0 mi SE 5.8 mph - N/A   Clear
10:35 PM 68.0 °F 62.6 °F 83% 29.92 in 10.0 mi SE 6.9 mph - N/A   Clear
11:15 PM 66.2 °F 60.8 °F 83% 29.91 in 7.0 mi ESE 5.8 mph - N/A   Clear
11:35 PM 66.2 °F 60.8 °F 83% 29.91 in 7.0 mi SE 6.9 mph - N/A   Clear
11:55 PM 66.2 °F 60.8 °F 83% 29.91 in 7.0 mi SE 5.8 mph - N/A   Clear